Year,Month,Day,Hour,Minute,Value (Times are PST for temperature in C)
2015,04,28,00,00,11.40
2015,04,28,00,01,11.40
2015,04,28,00,02,11.40
2015,04,28,00,03,11.40
2015,04,28,00,04,11.40
2015,04,28,00,05,11.40
2015,04,28,00,06,11.40
2015,04,28,00,07,11.40
2015,04,28,00,08,11.40
2015,04,28,00,09,11.40
2015,04,28,00,10,11.40
2015,04,28,00,11,11.40
2015,04,28,00,12,11.40
2015,04,28,00,13,11.30
2015,04,28,00,14,11.30
2015,04,28,00,15,11.30
2015,04,28,00,16,11.30
2015,04,28,00,17,11.30
2015,04,28,00,18,11.30
2015,04,28,00,19,11.30
2015,04,28,00,20,11.30
2015,04,28,00,21,11.30
2015,04,28,00,22,11.30
2015,04,28,00,23,11.30
2015,04,28,00,24,11.30
2015,04,28,00,25,11.30
2015,04,28,00,26,11.30
2015,04,28,00,27,11.30
2015,04,28,00,28,11.30
2015,04,28,00,29,11.30
2015,04,28,00,30,11.30
2015,04,28,00,31,11.30
2015,04,28,00,32,11.30
2015,04,28,00,33,11.30
2015,04,28,00,34,11.30
2015,04,28,00,35,11.30
2015,04,28,00,36,11.30
2015,04,28,00,37,11.30
2015,04,28,00,38,11.30
2015,04,28,00,39,11.30
2015,04,28,00,40,11.20
2015,04,28,00,41,11.20
2015,04,28,00,42,11.20
2015,04,28,00,43,11.20
2015,04,28,00,44,11.20
2015,04,28,00,45,11.20
2015,04,28,00,46,11.20
2015,04,28,00,47,11.20
2015,04,28,00,48,11.20
2015,04,28,00,49,11.20
2015,04,28,00,50,11.20
2015,04,28,00,51,11.20
2015,04,28,00,52,11.20
2015,04,28,00,53,11.10
2015,04,28,00,54,11.10
2015,04,28,00,55,11.10
2015,04,28,00,56,11.10
2015,04,28,00,57,11.10
2015,04,28,00,58,11.10
2015,04,28,00,59,11.10
2015,04,28,01,00,11.10
2015,04,28,01,01,11.10
2015,04,28,01,02,11.10
2015,04,28,01,03,11.10
2015,04,28,01,04,11.10
2015,04,28,01,05,11.10
2015,04,28,01,06,11.10
2015,04,28,01,07,11.10
2015,04,28,01,08,11.10
2015,04,28,01,09,11.10
2015,04,28,01,10,11.20
2015,04,28,01,11,11.20
2015,04,28,01,12,11.30
2015,04,28,01,13,11.30
2015,04,28,01,14,11.50
2015,04,28,01,15,11.50
2015,04,28,01,16,11.60
2015,04,28,01,17,11.70
2015,04,28,01,18,11.70
2015,04,28,01,19,11.80
2015,04,28,01,20,11.80
2015,04,28,01,21,11.90
2015,04,28,01,22,11.90
2015,04,28,01,23,11.90
2015,04,28,01,24,11.90
2015,04,28,01,25,11.90
2015,04,28,01,26,11.90
2015,04,28,01,27,11.90
2015,04,28,01,28,11.90
2015,04,28,01,29,11.90
2015,04,28,01,30,11.90
2015,04,28,01,31,11.90
2015,04,28,01,32,11.90
2015,04,28,01,33,11.90
2015,04,28,01,34,11.90
2015,04,28,01,35,11.90
2015,04,28,01,36,11.90
2015,04,28,01,37,11.90
2015,04,28,01,38,11.90
2015,04,28,01,39,11.90
2015,04,28,01,40,12.00
2015,04,28,01,41,11.90
2015,04,28,01,42,11.90
2015,04,28,01,43,11.90
2015,04,28,01,44,11.90
2015,04,28,01,45,11.90
2015,04,28,01,46,11.90
2015,04,28,01,47,11.90
2015,04,28,01,48,11.90
2015,04,28,01,49,11.90
2015,04,28,01,50,11.90
2015,04,28,01,51,11.90
2015,04,28,01,52,11.90
2015,04,28,01,53,11.90
2015,04,28,01,54,11.90
2015,04,28,08,58,13.80
2015,04,28,08,59,13.70
2015,04,28,09,00,13.70
2015,04,28,09,01,13.70
2015,04,28,09,02,13.60
2015,04,28,09,03,13.60
2015,04,28,09,04,13.50
2015,04,28,09,05,13.50
2015,04,28,09,06,13.40
2015,04,28,09,07,13.40
2015,04,28,09,08,13.30
2015,04,28,09,09,13.30
2015,04,28,09,10,13.30
2015,04,28,09,11,13.20
2015,04,28,09,12,13.20
2015,04,28,09,13,13.20
2015,04,28,09,14,13.10
2015,04,28,09,15,13.10
2015,04,28,09,16,13.00
2015,04,28,09,17,13.00
2015,04,28,09,18,13.00
2015,04,28,09,19,13.00
2015,04,28,09,20,13.00
2015,04,28,09,21,12.90
2015,04,28,09,22,12.90
2015,04,28,09,23,12.90
2015,04,28,09,24,12.80
2015,04,28,09,25,12.80
2015,04,28,09,26,12.80
2015,04,28,09,27,12.80
2015,04,28,09,28,12.80
2015,04,28,09,29,12.80
2015,04,28,09,30,12.80
2015,04,28,09,31,12.70
2015,04,28,09,32,12.70
2015,04,28,09,33,12.70
2015,04,28,09,34,12.70
2015,04,28,09,35,12.70
2015,04,28,09,36,12.70
2015,04,28,09,37,12.70
2015,04,28,09,38,12.70
2015,04,28,09,39,12.60
2015,04,28,09,40,12.60
2015,04,28,09,41,12.60
2015,04,28,09,42,12.60
2015,04,28,09,43,12.60
2015,04,28,09,44,12.60
2015,04,28,09,45,12.60
2015,04,28,09,46,12.60
2015,04,28,09,47,12.60
2015,04,28,09,48,12.60
2015,04,28,09,49,12.60
2015,04,28,09,50,12.60
2015,04,28,09,51,12.60
2015,04,28,09,52,12.60
2015,04,28,09,53,12.60
2015,04,28,09,54,12.60
2015,04,28,09,55,12.60
2015,04,28,09,56,12.60
2015,04,28,09,57,12.60
2015,04,28,09,58,12.60
2015,04,28,09,59,12.60
2015,04,28,10,00,12.60
2015,04,28,10,01,12.60
2015,04,28,10,02,12.60
2015,04,28,10,03,12.60
2015,04,28,10,04,12.60
2015,04,28,10,05,12.60
2015,04,28,10,06,12.60
2015,04,28,10,07,12.60
2015,04,28,10,08,12.60
2015,04,28,10,09,12.60
2015,04,28,10,10,12.60
2015,04,28,10,11,12.60
2015,04,28,10,12,12.60
2015,04,28,10,13,12.60
2015,04,28,10,14,12.70
2015,04,28,10,15,12.70
2015,04,28,10,16,12.70
2015,04,28,10,17,12.70
2015,04,28,10,18,12.70
2015,04,28,10,19,12.70
2015,04,28,10,20,12.70
2015,04,28,10,21,12.70
2015,04,28,10,22,12.60
2015,04,28,10,23,12.60
2015,04,28,10,24,12.60
2015,04,28,10,25,12.60
2015,04,28,10,26,12.70
2015,04,28,10,27,12.60
2015,04,28,10,28,12.60
2015,04,28,10,29,12.60
2015,04,28,10,30,12.60
2015,04,28,10,31,12.70
2015,04,28,10,32,12.70
2015,04,28,10,33,12.60
2015,04,28,10,34,12.60
2015,04,28,10,35,12.60
2015,04,28,10,36,12.60
2015,04,28,10,37,12.60
2015,04,28,10,38,12.50
2015,04,28,10,39,12.50
2015,04,28,10,40,12.50
2015,04,28,10,41,12.50
2015,04,28,10,42,12.50
2015,04,28,10,43,12.50
2015,04,28,10,44,12.50
2015,04,28,10,45,12.50
2015,04,28,10,46,12.50
2015,04,28,10,47,12.50
2015,04,28,10,48,12.50
2015,04,28,10,49,12.50
2015,04,28,10,50,12.50
2015,04,28,10,51,12.50
2015,04,28,10,52,12.50
2015,04,28,10,53,12.50
2015,04,28,10,54,12.50
2015,04,28,10,55,12.50
2015,04,28,10,56,12.40
2015,04,28,10,57,12.40
2015,04,28,10,58,12.40
2015,04,28,10,59,12.30
2015,04,28,11,00,12.30
2015,04,28,11,01,12.30
2015,04,28,11,02,12.30
2015,04,28,11,03,12.30
2015,04,28,11,04,12.30
2015,04,28,11,05,12.30
2015,04,28,11,06,12.20
2015,04,28,11,07,12.20
2015,04,28,11,08,12.20
2015,04,28,11,09,12.20
2015,04,28,11,10,12.20
2015,04,28,11,11,12.20
2015,04,28,11,12,12.20
2015,04,28,11,13,12.20
2015,04,28,11,14,12.20
2015,04,28,11,15,12.20
2015,04,28,11,16,12.20
2015,04,28,11,17,12.20
2015,04,28,11,18,12.20
2015,04,28,11,19,12.20
2015,04,28,11,20,12.20
2015,04,28,11,21,12.10
2015,04,28,11,22,12.10
2015,04,28,11,23,12.20
2015,04,28,11,24,12.20
2015,04,28,11,25,12.10
2015,04,28,11,26,12.10
2015,04,28,11,27,12.10
2015,04,28,11,28,12.10
2015,04,28,11,29,12.10
2015,04,28,11,30,12.00
2015,04,28,11,31,12.00
2015,04,28,11,32,12.00
2015,04,28,11,33,11.90
2015,04,28,11,34,11.90
2015,04,28,11,35,11.90
2015,04,28,11,36,11.90
2015,04,28,11,37,11.80
2015,04,28,11,38,11.80
2015,04,28,11,39,11.80
2015,04,28,11,40,11.80
2015,04,28,11,41,11.70
2015,04,28,11,42,11.70
2015,04,28,11,43,11.70
2015,04,28,11,44,11.70
2015,04,28,11,45,11.60
2015,04,28,11,46,11.60
2015,04,28,11,47,11.60
2015,04,28,11,48,11.60
2015,04,28,11,49,11.50
2015,04,28,11,50,11.50
2015,04,28,11,51,11.50
2015,04,28,11,52,11.40
2015,04,28,11,53,11.40
2015,04,28,11,54,11.40
2015,04,28,11,55,11.40
2015,04,28,11,56,11.40
2015,04,28,11,57,11.40
2015,04,28,11,58,11.30
2015,04,28,11,59,11.30
2015,04,28,12,00,11.30
2015,04,28,12,01,11.30
2015,04,28,12,02,11.30
2015,04,28,12,03,11.30
2015,04,28,12,04,11.30
2015,04,28,12,05,11.30
2015,04,28,12,06,11.30
2015,04,28,12,07,11.30
2015,04,28,12,08,11.20
2015,04,28,12,09,11.20
2015,04,28,12,10,11.20
2015,04,28,12,11,11.20
2015,04,28,12,12,11.20
2015,04,28,12,13,11.20
2015,04,28,12,14,11.20
2015,04,28,12,15,11.20
2015,04,28,12,16,11.20
2015,04,28,12,17,11.20
2015,04,28,12,18,11.20
2015,04,28,12,19,11.10
2015,04,28,12,20,11.10
2015,04,28,12,21,11.10
2015,04,28,12,22,11.10
2015,04,28,12,23,11.10
2015,04,28,12,24,11.00
2015,04,28,12,25,11.00
2015,04,28,12,26,10.90
2015,04,28,12,27,10.90
2015,04,28,12,28,10.90
2015,04,28,12,29,10.80
2015,04,28,12,30,10.80
2015,04,28,12,31,10.80
2015,04,28,12,32,10.70
2015,04,28,12,33,10.70
2015,04,28,12,34,10.70
2015,04,28,12,35,10.60
2015,04,28,12,36,10.60
2015,04,28,12,37,10.60
2015,04,28,12,38,10.60
2015,04,28,12,39,10.60
2015,04,28,12,40,10.50
2015,04,28,12,41,10.50
2015,04,28,12,42,10.50
2015,04,28,12,43,10.50
2015,04,28,12,44,10.50
2015,04,28,12,45,10.50
2015,04,28,12,46,10.50
2015,04,28,12,47,10.50
2015,04,28,12,48,10.50
2015,04,28,12,49,10.50
2015,04,28,12,50,10.50
2015,04,28,12,51,10.50
2015,04,28,12,52,10.50
2015,04,28,12,53,10.50
2015,04,28,12,54,10.50
2015,04,28,12,55,10.50
2015,04,28,12,56,10.60
2015,04,28,12,57,10.60
2015,04,28,12,58,10.60
2015,04,28,12,59,10.60
2015,04,28,13,00,10.60
2015,04,28,13,01,10.60
2015,04,28,13,02,10.70
2015,04,28,13,03,10.70
2015,04,28,13,04,10.70
2015,04,28,13,05,10.70
2015,04,28,13,06,10.70
2015,04,28,13,07,10.70
2015,04,28,13,08,10.70
2015,04,28,13,09,10.80
2015,04,28,13,10,10.80
2015,04,28,13,11,10.80
2015,04,28,13,12,10.80
2015,04,28,13,13,10.80
2015,04,28,13,14,10.90
2015,04,28,13,15,10.90
2015,04,28,13,16,10.90
2015,04,28,13,17,11.00
2015,04,28,13,18,11.00
2015,04,28,13,19,11.00
2015,04,28,13,20,11.10
2015,04,28,13,21,11.10
2015,04,28,13,22,11.10
2015,04,28,13,23,11.10
2015,04,28,13,24,11.10
2015,04,28,13,25,11.10
2015,04,28,13,26,11.20
2015,04,28,13,27,11.20
2015,04,28,13,28,11.20
2015,04,28,13,29,11.20
2015,04,28,13,30,11.20
2015,04,28,13,31,11.30
2015,04,28,13,32,11.30
2015,04,28,13,33,11.30
2015,04,28,13,34,11.30
2015,04,28,13,35,11.30
2015,04,28,13,36,11.30
2015,04,28,13,37,11.30
2015,04,28,13,38,11.40
2015,04,28,13,39,11.40
2015,04,28,13,40,11.40
2015,04,28,13,41,11.40
2015,04,28,13,42,11.40
2015,04,28,13,43,11.40
2015,04,28,13,44,11.50
2015,04,28,13,45,11.50
2015,04,28,13,46,11.50
2015,04,28,13,47,11.60
2015,04,28,13,48,11.60
2015,04,28,13,49,11.60
2015,04,28,13,50,11.60
2015,04,28,13,51,11.70
2015,04,28,13,52,11.70
2015,04,28,13,53,11.70
2015,04,28,13,54,11.80
2015,04,28,13,55,11.80
2015,04,28,13,56,11.80
2015,04,28,13,57,11.90
2015,04,28,13,58,11.90
2015,04,28,13,59,11.90
2015,04,28,14,00,11.90
2015,04,28,14,01,12.00
2015,04,28,14,02,12.00
2015,04,28,14,03,12.00
2015,04,28,14,04,12.10
2015,04,28,14,05,12.10
2015,04,28,14,06,12.20
2015,04,28,14,07,12.20
2015,04,28,14,08,12.20
2015,04,28,14,09,12.20
2015,04,28,14,10,12.20
2015,04,28,14,11,12.10
2015,04,28,14,12,12.10
2015,04,28,14,13,12.10
2015,04,28,14,14,12.10
2015,04,28,14,15,12.10
2015,04,28,14,16,12.10
2015,04,28,14,17,12.00
2015,04,28,14,18,12.00
2015,04,28,14,19,11.90
2015,04,28,14,20,11.90
2015,04,28,14,21,11.80
2015,04,28,14,22,11.70
2015,04,28,14,23,11.60
2015,04,28,14,24,11.60
2015,04,28,14,25,11.60
2015,04,28,14,26,11.60
2015,04,28,14,27,11.60
2015,04,28,14,28,11.60
2015,04,28,14,29,11.50
2015,04,28,14,30,11.50
2015,04,28,14,31,11.40
2015,04,28,14,32,11.40
2015,04,28,14,33,11.40
2015,04,28,14,34,11.40
2015,04,28,14,35,11.40
2015,04,28,14,36,11.30
2015,04,28,14,37,11.30
2015,04,28,14,38,11.30
2015,04,28,14,39,11.30
2015,04,28,14,40,11.30
2015,04,28,14,41,11.40
2015,04,28,14,42,11.40
2015,04,28,14,43,11.40
2015,04,28,14,44,11.40
2015,04,28,14,45,11.30
2015,04,28,14,46,11.30
2015,04,28,14,47,11.30
2015,04,28,14,48,11.40
2015,04,28,14,49,11.40
2015,04,28,14,50,11.40
2015,04,28,14,51,11.40
2015,04,28,14,52,11.40
2015,04,28,14,53,11.40
2015,04,28,14,54,11.40
2015,04,28,14,55,11.40
2015,04,28,14,56,11.40
2015,04,28,14,57,11.40
2015,04,28,14,58,11.50
2015,04,28,14,59,11.50
2015,04,28,15,00,11.60
2015,04,28,15,01,11.60
2015,04,28,15,02,11.70
2015,04,28,15,03,11.80
2015,04,28,15,04,11.90
2015,04,28,15,05,12.10
2015,04,28,15,06,12.30
2015,04,28,15,07,12.50
2015,04,28,15,08,12.70
2015,04,28,15,09,12.90
2015,04,28,15,10,13.00
2015,04,28,15,11,13.10
2015,04,28,15,12,13.20
2015,04,28,15,13,13.30
2015,04,28,15,14,13.40
2015,04,28,15,15,13.50
2015,04,28,15,16,13.60
2015,04,28,15,17,13.70
2015,04,28,15,18,13.80
2015,04,28,15,19,13.90
2015,04,28,15,20,14.00
2015,04,28,15,21,14.20
2015,04,28,15,22,14.20
2015,04,28,15,23,14.30
2015,04,28,15,24,14.30
2015,04,28,15,25,14.40
2015,04,28,15,26,14.40
2015,04,28,15,27,14.50
2015,04,28,15,28,14.60
2015,04,28,15,29,14.70
2015,04,28,15,30,14.80
2015,04,28,15,31,14.80
2015,04,28,15,32,14.90
2015,04,28,15,33,14.90
2015,04,28,15,34,15.00
2015,04,28,15,35,15.00
2015,04,28,15,36,15.10
2015,04,28,15,37,15.10
2015,04,28,15,38,15.10
2015,04,28,15,39,15.10
2015,04,28,15,40,15.00
2015,04,28,15,41,14.90
2015,04,28,15,42,14.90
2015,04,28,15,43,14.90
2015,04,28,15,44,14.90
2015,04,28,15,45,14.90
2015,04,28,15,46,14.90
2015,04,28,15,47,15.00
2015,04,28,15,48,15.00
2015,04,28,15,49,15.00
2015,04,28,15,50,15.00
2015,04,28,15,51,15.00
2015,04,28,15,52,15.00
2015,04,28,15,53,15.10
2015,04,28,15,54,15.20
2015,04,28,15,55,15.30
2015,04,28,15,56,15.30
2015,04,28,15,57,15.30
2015,04,28,15,58,15.20
2015,04,28,15,59,15.20
2015,04,28,16,00,15.20
2015,04,28,16,01,15.30
2015,04,28,16,02,15.30
2015,04,28,16,03,15.30
2015,04,28,16,04,15.40
2015,04,28,16,05,15.40
2015,04,28,16,06,15.50
2015,04,28,16,07,15.40
2015,04,28,16,08,15.40
2015,04,28,16,09,15.40
2015,04,28,16,10,15.40
2015,04,28,16,11,15.40
2015,04,28,16,12,15.50
2015,04,28,16,13,15.50
2015,04,28,16,14,15.60
2015,04,28,16,15,15.60
2015,04,28,16,16,15.60
2015,04,28,16,17,15.60
2015,04,28,16,18,15.60
2015,04,28,16,19,15.60
2015,04,28,16,20,15.50
2015,04,28,16,21,15.40
2015,04,28,16,22,15.30
2015,04,28,16,23,15.30
2015,04,28,16,24,15.30
2015,04,28,16,25,15.30
2015,04,28,16,26,15.30
2015,04,28,16,27,15.30
2015,04,28,16,28,15.40
2015,04,28,16,29,15.40
2015,04,28,16,30,15.40
2015,04,28,16,31,15.40
2015,04,28,16,32,15.40
2015,04,28,16,33,15.40
2015,04,28,16,34,15.40
2015,04,28,16,35,15.40
2015,04,28,16,36,15.40
2015,04,28,16,37,15.40
2015,04,28,16,38,15.40
2015,04,28,16,39,15.40
2015,04,28,16,40,15.30
2015,04,28,16,41,15.30
2015,04,28,16,42,15.30
2015,04,28,16,43,15.30
2015,04,28,16,44,15.30
2015,04,28,16,45,15.30
2015,04,28,16,46,15.20
2015,04,28,16,47,15.20
2015,04,28,16,48,15.20
2015,04,28,16,49,15.20
2015,04,28,16,50,15.20
2015,04,28,16,51,15.30
2015,04,28,16,52,15.20
2015,04,28,16,53,15.20
2015,04,28,16,54,15.20
2015,04,28,16,55,15.20
2015,04,28,16,56,15.20
2015,04,28,16,57,15.20
2015,04,28,16,58,15.20
2015,04,28,16,59,15.20
2015,04,28,17,00,15.20
2015,04,28,17,01,15.20
2015,04,28,17,02,15.20
2015,04,28,17,03,15.30
2015,04,28,17,04,15.30
2015,04,28,17,05,15.30
2015,04,28,17,06,15.30
2015,04,28,17,07,15.30
2015,04,28,17,08,15.30
2015,04,28,17,09,15.20
2015,04,28,17,10,15.20
2015,04,28,17,11,15.30
2015,04,28,17,12,15.30
2015,04,28,17,13,15.20
2015,04,28,17,14,15.20
2015,04,28,17,15,15.20
2015,04,28,17,16,15.20
2015,04,28,17,17,15.20
2015,04,28,17,18,15.10
2015,04,28,17,19,15.10
2015,04,28,17,20,15.00
2015,04,28,17,21,15.10
2015,04,28,17,22,15.10
2015,04,28,17,23,15.10
2015,04,28,17,24,15.20
2015,04,28,17,25,15.20
2015,04,28,17,26,15.20
2015,04,28,17,27,15.20
2015,04,28,17,28,15.30
2015,04,28,17,29,15.30
2015,04,28,17,30,15.30
2015,04,28,17,31,15.30
2015,04,28,17,32,15.30
2015,04,28,17,33,15.30
2015,04,28,17,34,15.20
2015,04,28,17,35,15.20
2015,04,28,17,36,15.20
2015,04,28,17,37,15.20
2015,04,28,17,38,15.20
2015,04,28,17,39,15.10
2015,04,28,17,40,15.10
2015,04,28,17,41,15.10
2015,04,28,17,42,15.10
2015,04,28,17,43,15.00
2015,04,28,17,44,15.00
2015,04,28,17,45,14.90
2015,04,28,17,46,14.90
2015,04,28,17,47,14.90
2015,04,28,17,48,14.90
2015,04,28,17,49,14.90
2015,04,28,17,50,14.90
2015,04,28,17,51,14.80
2015,04,28,17,52,14.80
2015,04,28,17,53,14.80
2015,04,28,17,54,14.80
2015,04,28,17,55,14.80
2015,04,28,17,56,14.90
2015,04,28,17,57,14.90
2015,04,28,17,58,14.90
2015,04,28,17,59,14.90
2015,04,28,18,00,14.80
2015,04,28,18,01,14.80
2015,04,28,18,02,14.80
2015,04,28,18,03,14.70
2015,04,28,18,04,14.70
2015,04,28,18,05,14.70
2015,04,28,18,06,14.70
2015,04,28,18,07,14.70
2015,04,28,18,08,14.70
2015,04,28,18,09,14.70
2015,04,28,18,10,14.70
2015,04,28,18,11,14.60
2015,04,28,18,12,14.60
2015,04,28,18,13,14.60
2015,04,28,18,14,14.60
2015,04,28,18,15,14.60
2015,04,28,18,16,14.60
2015,04,28,18,17,14.60
2015,04,28,18,18,14.60
2015,04,28,18,19,14.60
2015,04,28,18,20,14.60
2015,04,28,18,21,14.60
2015,04,28,18,22,14.70
2015,04,28,18,23,14.70
2015,04,28,18,24,14.70
2015,04,28,18,25,14.60
2015,04,28,18,26,14.60
2015,04,28,18,27,14.60
2015,04,28,18,28,14.60
2015,04,28,18,29,14.70
2015,04,28,18,30,14.60
2015,04,28,18,31,14.60
2015,04,28,18,32,14.60
2015,04,28,18,33,14.60
2015,04,28,18,34,14.60
2015,04,28,18,35,14.50
2015,04,28,18,36,14.50
2015,04,28,18,37,14.50
2015,04,28,18,38,14.40
2015,04,28,18,39,14.40
2015,04,28,18,40,14.40
2015,04,28,18,41,14.40
2015,04,28,18,42,14.30
2015,04,28,18,43,14.30
2015,04,28,18,44,14.30
2015,04,28,18,45,14.30
2015,04,28,18,46,14.30
2015,04,28,18,47,14.30
2015,04,28,18,48,14.30
2015,04,28,18,49,14.20
2015,04,28,18,50,14.20
2015,04,28,18,51,14.20
2015,04,28,18,52,14.20
2015,04,28,18,53,14.10
2015,04,28,18,54,14.10
2015,04,28,18,55,14.10
2015,04,28,18,56,14.10
2015,04,28,18,57,14.20
2015,04,28,18,58,14.20
2015,04,28,18,59,14.20
2015,04,28,19,00,14.20
2015,04,28,19,01,14.20
2015,04,28,19,02,14.20
2015,04,28,19,03,14.20
2015,04,28,19,04,14.10
2015,04,28,19,05,14.10
2015,04,28,19,06,14.10
2015,04,28,19,07,14.10
2015,04,28,19,08,14.10
2015,04,28,19,09,14.10
2015,04,28,19,10,14.10
2015,04,28,19,11,14.00
2015,04,28,19,12,14.00
2015,04,28,19,13,14.00
2015,04,28,19,14,14.00
2015,04,28,19,15,13.90
2015,04,28,19,16,13.90
2015,04,28,19,17,13.80
2015,04,28,19,18,13.80
2015,04,28,19,19,13.80
2015,04,28,19,20,13.80
2015,04,28,19,21,13.80
2015,04,28,19,22,13.80
2015,04,28,19,23,13.70
2015,04,28,19,24,13.70
2015,04,28,19,25,13.70
2015,04,28,19,26,13.60
2015,04,28,19,27,13.60
2015,04,28,19,28,13.50
2015,04,28,19,29,13.50
2015,04,28,19,30,13.50
2015,04,28,19,31,13.40
2015,04,28,19,32,13.40
2015,04,28,19,33,13.30
2015,04,28,19,34,13.30
2015,04,28,19,35,13.20
2015,04,28,19,36,13.20
2015,04,28,19,37,13.10
2015,04,28,19,38,13.10
2015,04,28,19,39,13.00
2015,04,28,19,40,13.00
2015,04,28,19,41,12.90
2015,04,28,19,42,12.90
2015,04,28,19,43,12.90
2015,04,28,19,44,12.80
2015,04,28,19,45,12.80
2015,04,28,19,46,12.80
2015,04,28,19,47,12.80
2015,04,28,19,48,12.80
2015,04,28,19,49,12.80
2015,04,28,19,50,12.70
2015,04,28,19,51,12.70
2015,04,28,19,52,12.70
2015,04,28,19,53,12.70
2015,04,28,19,54,12.70
2015,04,28,19,55,12.70
2015,04,28,19,56,12.70
2015,04,28,19,57,12.60
2015,04,28,19,58,12.60
2015,04,28,19,59,12.60
2015,04,28,20,00,12.60
2015,04,28,20,01,12.60
2015,04,28,20,02,12.60
2015,04,28,20,03,12.50
2015,04,28,20,04,12.50
2015,04,28,20,05,12.50
2015,04,28,20,06,12.50
2015,04,28,20,07,12.50
2015,04,28,20,08,12.40
2015,04,28,20,09,12.40
2015,04,28,20,10,12.40
2015,04,28,20,11,12.40
2015,04,28,20,12,12.40
2015,04,28,20,13,12.40
2015,04,28,20,14,12.40
2015,04,28,20,15,12.40
2015,04,28,20,16,12.40
2015,04,28,20,17,12.30
2015,04,28,20,18,12.30
2015,04,28,20,19,12.30
2015,04,28,20,20,12.30
2015,04,28,20,21,12.30
2015,04,28,20,22,12.30
2015,04,28,20,23,12.30
2015,04,28,20,24,12.20
2015,04,28,20,25,12.20
2015,04,28,20,26,12.20
2015,04,28,20,27,12.20
2015,04,28,20,28,12.20
2015,04,28,20,29,12.20
2015,04,28,20,30,12.10
2015,04,28,20,31,12.10
2015,04,28,20,32,12.10
2015,04,28,20,33,12.10
2015,04,28,20,34,12.10
2015,04,28,20,35,12.00
2015,04,28,20,36,12.00
2015,04,28,20,37,12.00
2015,04,28,20,38,12.00
2015,04,28,20,39,11.90
2015,04,28,20,40,11.90
2015,04,28,20,41,11.90
2015,04,28,20,42,11.90
2015,04,28,20,43,11.90
2015,04,28,20,44,11.80
2015,04,28,20,45,11.80
2015,04,28,20,46,11.80
2015,04,28,20,47,11.80
2015,04,28,20,48,11.80
2015,04,28,20,49,11.80
2015,04,28,20,50,11.80
2015,04,28,20,51,11.80
2015,04,28,20,52,11.80
2015,04,28,20,53,11.70
2015,04,28,20,54,11.70
2015,04,28,20,55,11.70
2015,04,28,20,56,11.70
2015,04,28,20,57,11.70
2015,04,28,20,58,11.70
2015,04,28,20,59,11.70
2015,04,28,21,00,11.70
2015,04,28,21,01,11.70
2015,04,28,21,02,11.60
2015,04,28,21,03,11.60
2015,04,28,21,04,11.60
2015,04,28,21,05,11.60
2015,04,28,21,06,11.60
2015,04,28,21,07,11.60
2015,04,28,21,08,11.50
2015,04,28,21,09,11.50
2015,04,28,21,10,11.50
2015,04,28,21,11,11.40
2015,04,28,21,12,11.40
2015,04,28,21,13,11.40
2015,04,28,21,14,11.40
2015,04,28,21,15,11.40
2015,04,28,21,16,11.40
2015,04,28,21,17,11.30
2015,04,28,21,18,11.30
2015,04,28,21,19,11.30
2015,04,28,21,20,11.30
2015,04,28,21,21,11.30
2015,04,28,21,22,11.20
2015,04,28,21,23,11.20
2015,04,28,21,24,11.20
2015,04,28,21,25,11.20
2015,04,28,21,26,11.20
2015,04,28,21,27,11.20
2015,04,28,21,28,11.20
2015,04,28,21,29,11.10
2015,04,28,21,30,11.10
2015,04,28,21,31,11.10
2015,04,28,21,32,11.10
2015,04,28,21,33,11.10
2015,04,28,21,34,11.10
2015,04,28,21,35,11.10
2015,04,28,21,36,11.00
2015,04,28,21,37,11.00
2015,04,28,21,38,11.00
2015,04,28,21,39,11.00
2015,04,28,21,40,11.00
2015,04,28,21,41,11.00
2015,04,28,21,42,11.00
2015,04,28,21,43,11.00
2015,04,28,21,44,11.00
2015,04,28,21,45,10.90
2015,04,28,21,46,10.90
2015,04,28,21,47,10.90
2015,04,28,21,48,10.90
2015,04,28,21,49,10.90
2015,04,28,21,50,10.90
2015,04,28,21,51,10.90
2015,04,28,21,52,10.90
2015,04,28,21,53,10.90
2015,04,28,21,54,10.90
2015,04,28,21,55,10.80
2015,04,28,21,56,10.80
2015,04,28,21,57,10.80
2015,04,28,21,58,10.80
2015,04,28,21,59,10.80
2015,04,28,22,00,10.80
2015,04,28,22,01,10.90
2015,04,28,22,02,10.90
2015,04,28,22,03,10.90
2015,04,28,22,04,10.90
2015,04,28,22,05,10.90
2015,04,28,22,06,10.90
2015,04,28,22,07,10.90
2015,04,28,22,08,10.90
2015,04,28,22,09,10.90
2015,04,28,22,10,10.90
2015,04,28,22,11,10.80
2015,04,28,22,12,10.80
2015,04,28,22,13,10.80
2015,04,28,22,14,10.80
2015,04,28,22,15,10.80
2015,04,28,22,16,10.80
2015,04,28,22,17,10.80
2015,04,28,22,18,10.80
2015,04,28,22,19,10.70
2015,04,28,22,20,10.70
2015,04,28,22,21,10.70
2015,04,28,22,22,10.70
2015,04,28,22,23,10.70
2015,04,28,22,24,10.70
2015,04,28,22,25,10.70
2015,04,28,22,26,10.70
2015,04,28,22,27,10.70
2015,04,28,22,28,10.60
2015,04,28,22,29,10.60
2015,04,28,22,30,10.60
2015,04,28,22,31,10.60
2015,04,28,22,32,10.60
2015,04,28,22,33,10.60
2015,04,28,22,34,10.60
2015,04,28,22,35,10.60
2015,04,28,22,36,10.50
2015,04,28,22,37,10.50
2015,04,28,22,38,10.50
2015,04,28,22,39,10.50
2015,04,28,22,40,10.50
2015,04,28,22,41,10.50
2015,04,28,22,42,10.50
2015,04,28,22,43,10.50
2015,04,28,22,44,10.50
2015,04,28,22,45,10.40
2015,04,28,22,46,10.40
2015,04,28,22,47,10.40
2015,04,28,22,48,10.40
2015,04,28,22,49,10.40
2015,04,28,22,50,10.40
2015,04,28,22,51,10.40
2015,04,28,22,52,10.40
2015,04,28,22,53,10.40
2015,04,28,22,54,10.40
2015,04,28,22,55,10.40
2015,04,28,22,56,10.40
2015,04,28,22,57,10.30
2015,04,28,22,58,10.30
2015,04,28,22,59,10.30
2015,04,28,23,00,10.30
2015,04,28,23,01,10.30
2015,04,28,23,02,10.30
2015,04,28,23,03,10.30
2015,04,28,23,04,10.30
2015,04,28,23,05,10.30
2015,04,28,23,06,10.30
2015,04,28,23,07,10.30
2015,04,28,23,08,10.30
2015,04,28,23,09,10.30
2015,04,28,23,10,10.30
2015,04,28,23,11,10.20
2015,04,28,23,12,10.20
2015,04,28,23,13,10.20
2015,04,28,23,14,10.20
2015,04,28,23,15,10.20
2015,04,28,23,16,10.20
2015,04,28,23,17,10.20
2015,04,28,23,18,10.10
2015,04,28,23,19,10.10
2015,04,28,23,20,10.10
2015,04,28,23,21,10.10
2015,04,28,23,22,10.10
2015,04,28,23,23,10.10
2015,04,28,23,24,10.10
2015,04,28,23,25,10.10
2015,04,28,23,26,10.10
2015,04,28,23,27,10.00
2015,04,28,23,28,10.00
2015,04,28,23,29,10.00
2015,04,28,23,30,10.00
2015,04,28,23,31,10.00
2015,04,28,23,32,10.00
2015,04,28,23,33,10.00
2015,04,28,23,34,10.00
2015,04,28,23,35,10.00
2015,04,28,23,36,10.00
2015,04,28,23,37,10.00
2015,04,28,23,38,10.00
2015,04,28,23,39,10.00
2015,04,28,23,40,10.00
2015,04,28,23,41,10.00
2015,04,28,23,42,10.00
2015,04,28,23,43,10.00
2015,04,28,23,44,10.00
2015,04,28,23,45,9.90
2015,04,28,23,46,9.90
2015,04,28,23,47,9.90
2015,04,28,23,48,9.90
2015,04,28,23,49,9.90
2015,04,28,23,50,9.90
2015,04,28,23,51,9.90
2015,04,28,23,52,9.90
2015,04,28,23,53,9.90
2015,04,28,23,54,9.90
2015,04,28,23,55,9.90
2015,04,28,23,56,9.90
2015,04,28,23,57,9.90
2015,04,28,23,58,9.90
2015,04,28,23,59,9.90
